Lebanon, NH

7:47 PM EDT on April 26, 2018 (GMT -0400)
Lebanon Municipal

Weather History for KLEB - December, 2013

Change the Weather History Date:

Wednesday, December 11, 2013

  Actual Average Record
Temperature  
Mean Temperature 24 °F -  
Max Temperature 28 °F 35 °F 61 °F (1966)
Min Temperature 19 °F 17 °F -12 °F (1958)
Degree Days  
Heating Degree Days 42    
Moisture  
Dew Point 13 °F    
Average Humidity 65    
Maximum Humidity 85    
Minimum Humidity 43    
Precipitation  
Precipitation 0.00 in - - ()
Sea Level Pressure  
Sea Level Pressure 30.08 in    
Wind  
Wind Speed 8 mph (WSW)    
Max Wind Speed 17 mph    
Max Gust Speed 23 mph    
Visibility 7 miles    
Events Snow    
Averages and records for this station are not official NWS values.
T = Trace of Precipitation, MM = Missing Value Source: NWS Daily Summary

Daily Weather History Graph

Daily Weather History Graph

Search for Another Location

Airport or City:

Astronomy

Dec. 11, 2013 Rise Set
Actual Time 7:12 AM EST 4:12 PM EST
Civil Twilight 6:40 AM EST 4:45 PM EST
Nautical Twilight 6:03 AM EST 5:21 PM EST
Astronomical Twilight 5:29 AM EST 5:56 PM EST
Moon 12:52 PM EST (12/11) 1:22 AM EST (12/11)
Length of Visible Light 10h 05m
Length of Day
8h 59m
Waxing Gibbous, 71% of the Moon is Illuminated
Dec 11
Waxing Gibbous
Dec 17
Full
Dec 25
Last Quarter
Jan 1
New
Jan 7
First Quarter

Hourly Weather History & Observations

Time (EST) Temp. Windchill Dew Point Humidity Pressure Visibility Wind Dir Wind Speed Gust Speed Precip Events Conditions
12:53 AM 23.0 °F 13.1 °F 8.1 °F 53% 29.98 in 10.0 mi WSW 9.2 mph - N/A   Mostly Cloudy
1:53 AM 24.1 °F 15.2 °F 9.0 °F 53% 30.01 in 10.0 mi West 8.1 mph - N/A   Overcast
2:53 AM 21.9 °F 12.5 °F 7.0 °F 53% 30.02 in 10.0 mi WSW 8.1 mph - N/A   Overcast
3:53 AM 23.0 °F 14.7 °F 6.1 °F 48% 30.04 in 10.0 mi WSW 6.9 mph - N/A   Overcast
4:41 AM 23.0 °F 14.7 °F 10.0 °F 58% 30.01 in 6.0 mi West 6.9 mph - 0.00 in Snow Light Snow
4:53 AM 21.9 °F 14.5 °F 12.0 °F 66% 30.05 in 5.0 mi SW 5.8 mph - 0.00 in Snow Light Snow
5:45 AM 21.0 °F 16.2 °F 14.0 °F 74% 30.03 in 9.0 mi South 3.5 mph - 0.00 in   Overcast
5:53 AM 21.0 °F 16.2 °F 14.0 °F 74% 30.08 in 8.0 mi South 3.5 mph - 0.00 in   Overcast
6:04 AM 21.0 °F - 14.0 °F 74% 30.04 in 4.0 mi Calm Calm - 0.00 in Snow Light Snow
6:53 AM 21.9 °F 13.4 °F 14.0 °F 72% 30.10 in 8.0 mi South 6.9 mph - 0.00 in   Overcast
7:10 AM 21.9 °F 13.4 °F 12.9 °F 68% 30.06 in 10.0 mi SSW 6.9 mph - N/A   Overcast
7:53 AM 23.0 °F 15.8 °F 10.0 °F 58% 30.12 in 10.0 mi SW 5.8 mph - N/A   Scattered Clouds
8:53 AM 24.1 °F 15.2 °F 9.0 °F 53% 30.13 in 10.0 mi SW 8.1 mph - N/A   Scattered Clouds
9:53 AM 25.0 °F 14.8 °F 8.1 °F 49% 30.14 in 10.0 mi WSW 10.4 mph - N/A   Overcast
10:53 AM 26.1 °F 16.2 °F 10.0 °F 51% 30.12 in 10.0 mi West 10.4 mph - N/A   Overcast
11:53 AM 27.0 °F 16.1 °F 9.0 °F 47% 30.09 in 10.0 mi SW 12.7 mph - N/A   Overcast
12:53 PM 28.0 °F 17.0 °F 9.0 °F 45% 30.08 in 10.0 mi WSW 13.8 mph - N/A   Overcast
1:53 PM 28.0 °F 15.7 °F 9.0 °F 45% 30.06 in 10.0 mi West 17.3 mph 23.0 mph N/A   Overcast
2:53 PM 28.0 °F 20.0 °F 9.0 °F 45% 30.06 in 10.0 mi West 8.1 mph 19.6 mph N/A   Overcast
3:53 PM 28.0 °F 18.6 °F 8.1 °F 43% 30.07 in 10.0 mi SW 10.4 mph 17.3 mph N/A   Overcast
4:53 PM 28.0 °F 20.0 °F 8.1 °F 43% 30.08 in 10.0 mi SW 8.1 mph - N/A   Overcast
5:53 PM 27.0 °F 18.0 °F 10.0 °F 49% 30.08 in 10.0 mi SSW 9.2 mph - N/A   Overcast
6:53 PM 26.1 °F 16.2 °F 12.9 °F 58% 30.09 in 10.0 mi SSW 10.4 mph - N/A   Overcast
7:18 PM 26.1 °F 16.8 °F 16.0 °F 66% 30.06 in 4.0 mi SSW 9.2 mph - 0.00 in Snow Light Snow
7:29 PM 25.0 °F 16.3 °F 18.0 °F 75% 30.06 in 1.8 mi SSW 8.1 mph - 0.00 in Snow Light Snow
7:40 PM 25.0 °F 17.1 °F 18.0 °F 75% 30.06 in 2.5 mi SSW 6.9 mph - 0.00 in Snow Light Snow
7:48 PM 24.8 °F 16.9 °F 19.4 °F 80% 30.06 in 4.0 mi South 6.9 mph - 0.00 in Snow Light Snow
7:53 PM 25.0 °F 17.1 °F 19.0 °F 78% 30.10 in 5.0 mi South 6.9 mph - 0.00 in Snow Light Snow
8:16 PM 25.0 °F 15.5 °F 18.0 °F 75% 30.05 in 3.0 mi South 9.2 mph - 0.00 in Snow Light Snow
8:48 PM 24.8 °F 14.0 °F 17.6 °F 74% 30.07 in 1.5 mi NNW 11.5 mph - 0.00 in Snow Light Snow
8:53 PM 24.1 °F 14.4 °F 18.0 °F 77% 30.11 in 0.8 mi NNW 9.2 mph - 0.00 in Snow Light Snow
8:59 PM 23.0 °F 13.9 °F 19.0 °F 85% 30.07 in 1.0 mi NW 8.1 mph - 0.00 in Snow Light Snow
9:06 PM 23.0 °F 13.1 °F 19.0 °F 85% 30.08 in 2.0 mi NW 9.2 mph - 0.00 in Snow Light Snow
9:13 PM 24.1 °F 14.4 °F 17.1 °F 75% 30.08 in 5.0 mi West 9.2 mph - 0.00 in Snow Light Snow
9:28 PM 24.1 °F 16.0 °F 14.0 °F 65% 30.08 in 9.0 mi West 6.9 mph - 0.00 in   Overcast
9:53 PM 23.0 °F 15.8 °F 12.0 °F 63% 30.12 in 10.0 mi West 5.8 mph - 0.00 in   Overcast
10:35 PM 21.0 °F 9.9 °F 15.1 °F 78% 30.10 in 2.5 mi North 10.4 mph - 0.00 in Snow Light Snow
10:45 PM 21.0 °F 11.4 °F 15.1 °F 78% 30.10 in 3.0 mi North 8.1 mph - 0.00 in Snow Light Snow
10:53 PM 21.0 °F 10.6 °F 15.1 °F 78% 30.15 in 6.0 mi North 9.2 mph - 0.00 in   Haze
11:05 PM 21.0 °F 10.6 °F 14.0 °F 74% 30.11 in 1.8 mi NNE 9.2 mph - 0.00 in Snow Light Snow
11:12 PM 19.9 °F 10.1 °F 14.0 °F 78% 30.11 in 3.0 mi North 8.1 mph - 0.00 in Snow Light Snow
11:53 PM 19.0 °F 7.5 °F 12.0 °F 74% 30.15 in 3.0 mi North 10.4 mph - 0.00 in Snow Light Snow